TimeCST,TemperatureF,Dew PointF,Humidity,Sea Level PressureIn,VisibilityMPH,Wind Direction,Wind SpeedMPH,Gust SpeedMPH,PrecipitationIn,Events,Conditions,WindDirDegrees,DateUTC
12:53 AM,37.0,30.0,76,30.01,10.0,SSE,8.1,-,N/A,,Clear,160,2012-11-21 06:53:00
1:53 AM,39.0,30.0,70,29.99,10.0,SSE,8.1,-,N/A,,Clear,160,2012-11-21 07:53:00
2:53 AM,39.0,30.0,70,29.99,10.0,SE,6.9,-,N/A,,Clear,140,2012-11-21 08:53:00
3:53 AM,37.0,30.0,76,29.97,10.0,SSE,8.1,-,N/A,,Clear,160,2012-11-21 09:53:00
4:53 AM,36.0,30.0,79,29.97,10.0,South,4.6,-,N/A,,Clear,170,2012-11-21 10:53:00
5:53 AM,37.0,30.0,76,29.97,10.0,SSE,3.5,-,N/A,,Clear,160,2012-11-21 11:53:00
6:53 AM,32.0,28.9,88,29.98,9.0,SSE,4.6,-,N/A,,Clear,150,2012-11-21 12:53:00
7:53 AM,36.0,32.0,86,29.97,8.0,SSE,4.6,-,N/A,,Clear,150,2012-11-21 13:53:00
8:53 AM,37.9,33.1,83,29.98,9.0,SSE,3.5,-,N/A,,Clear,160,2012-11-21 14:53:00
9:53 AM,44.1,35.1,71,29.97,10.0,South,6.9,-,N/A,,Clear,190,2012-11-21 15:53:00
10:53 AM,46.9,36.0,66,29.95,10.0,South,4.6,-,N/A,,Clear,180,2012-11-21 16:53:00
11:53 AM,50.0,36.0,59,29.94,10.0,South,4.6,-,N/A,,Clear,180,2012-11-21 17:53:00
12:53 PM,55.0,36.0,49,29.90,10.0,SE,6.9,-,N/A,,Clear,140,2012-11-21 18:53:00
1:53 PM,55.0,37.9,53,29.88,10.0,SE,8.1,-,N/A,,Clear,140,2012-11-21 19:53:00
2:53 PM,55.9,37.9,51,29.86,10.0,SE,8.1,-,N/A,,Clear,140,2012-11-21 20:53:00
3:53 PM,54.0,37.9,55,29.84,10.0,ESE,5.8,-,N/A,,Clear,120,2012-11-21 21:53:00
4:53 PM,52.0,37.0,57,29.82,10.0,ESE,8.1,-,N/A,,Clear,110,2012-11-21 22:53:00
5:53 PM,50.0,37.0,61,29.80,10.0,ESE,5.8,-,N/A,,Clear,120,2012-11-21 23:53:00
6:53 PM,50.0,37.0,61,29.78,10.0,ESE,5.8,-,N/A,,Clear,120,2012-11-22 00:53:00
7:53 PM,48.9,37.0,64,29.75,10.0,SE,5.8,-,N/A,,Clear,130,2012-11-22 01:53:00
8:53 PM,55.0,39.9,57,29.72,10.0,South,11.5,-,N/A,,Clear,170,2012-11-22 02:53:00
9:53 PM,55.9,41.0,57,29.70,10.0,South,11.5,-,N/A,,Clear,170,2012-11-22 03:53:00
10:53 PM,55.0,41.0,59,29.67,10.0,South,10.4,-,N/A,,Clear,170,2012-11-22 04:53:00
11:53 PM,54.0,41.0,62,29.66,10.0,South,11.5,-,N/A,,Clear,180,2012-11-22 05:53:00